Theta_e
319 316 315 315 315 316 317 317 318 320 322 321 318 320 320 322 323 324 324 324 334 335 336 339 343 343 334 332 349 352 353 352 352 352 350 351 346 347 347 348 347 347 346 346
318 317 318 319 319 318 318 318 319 320 321 322 321 321 321 321 322 323 324 324 334 335 337 340 342 342 341 335 345 355 353 352 353 353 354 353 353 351 348 348 348 349 348 347
318 319 321 321 320 322 321 320 320 321 321 321 320 320 321 322 323 323 327 325 334 335 336 341 343 343 346 346 345 349 352 354 353 354 356 356 354 353 353 352 351 349 348 348
320 321 322 321 321 321 320 322 322 321 320 319 321 319 319 320 319 319 329 332 334 337 342 343 344 345 346 347 350 346 344 350 354 352 354 354 354 353 353 354 354 352 350 349
320 321 321 322 322 322 322 321 320 321 320 320 320 318 318 320 321 319 326 330 335 341 341 340 341 341 343 343 347 350 347 346 351 352 350 351 352 353 352 353 352 353 350 348
319 321 320 320 321 322 323 323 322 320 318 319 320 319 319 319 322 323 326 334 338 338 337 338 338 338 336 337 336 345 347 348 349 349 350 350 352 352 354 352 351 351 350 350
320 320 322 323 322 321 322 322 323 322 319 320 320 321 324 328 325 325 328 334 335 335 336 336 335 335 334 334 333 333 341 342 342 342 344 343 344 346 347 350 349 350 349 351
321 323 321 320 323 322 322 319 322 323 323 324 323 328 336 328 323 325 324 331 329 328 332 333 331 329 327 331 331 329 328 327 335 337 338 339 343 343 344 345 346 348 347 348
320 321 320 320 321 322 323 322 320 320 323 324 323 326 333 328 326 323 322 320 324 325 326 324 328 325 325 330 331 330 327 325 325 322 323 329 333 337 337 341 343 342 344 346
318 319 318 318 322 321 321 320 323 322 325 325 324 332 333 332 326 325 322 321 319 320 322 323 321 323 322 322 323 322 323 326 326 326 325 325 321 316 317 324 334 339 343 344
316 318 318 319 322 321 325 325 323 321 326 329 327 332 330 329 326 325 323 321 318 318 318 317 317 317 317 317 317 319 319 319 320 321 321 325 324 322 319 317 317 326 332 338
317 317 318 318 317 321 324 323 324 325 325 327 326 330 327 326 324 322 321 322 321 319 317 317 316 315 316 316 316 316 316 317 318 319 319 320 320 326 325 321 317 319 323 329
313 313 316 318 318 319 320 319 321 320 322 323 325 327 322 323 324 322 321 319 319 319 319 318 317 316 315 314 314 314 314 314 316 317 318 318 318 320 325 325 322 315 324 324
313 314 315 315 316 319 320 320 319 319 321 322 321 324 323 321 320 321 321 320 319 318 318 316 315 314 314 313 313 314 314 314 314 314 315 317 317 317 318 323 324 321 314 329
313 314 316 315 316 316 317 318 320 319 317 315 317 320 322 320 319 319 318 318 317 316 315 314 313 313 313 312 312 313 313 313 313 313 313 315 316 317 316 318 323 322 314 315
316 316 317 318 317 317 318 317 318 318 314 314 315 316 316 319 320 318 317 317 315 315 314 313 313 312 312 312 312 312 312 312 312 312 312 313 314 315 316 317 318 321 319 316
314 314 315 316 317 317 318 317 315 314 313 313 313 314 314 314 315 313 315 315 314 314 313 313 312 312 312 312 312 312 312 311 312 312 312 312 313 313 314 316 317 320 320 319
313 313 313 313 314 317 316 315 313 311 314 314 311 314 314 314 314 314 313 313 313 313 312 312 311 311 311 311 310 309 309 309 309 310 311 312 313 313 313 313 315 319 317 319
312 312 311 311 314 316 315 315 314 313 316 316 315 315 315 315 315 314 313 313 312 312 311 311 311 311 310 309 309 309 310 309 308 308 309 310 311 311 312 313 313 314 318 319
313 311 311 312 314 315 317 316 312 312 314 315 314 314 314 314 311 312 312 312 312 312 311 310 310 310 309 309 308 309 308 308 308 308 308 309 309 310 310 312 313 313 312 315
312 313 311 310 310 313 315 315 314 312 315 314 314 313 312 311 312 312 312 311 311 310 309 310 309 309 309 309 308 308 308 309 308 308 308 309 309 309 309 309 311 312 313 314
314 314 311 312 312 310 315 315 316 315 314 313 313 312 312 312 312 312 311 311 310 310 310 310 309 309 308 307 307 308 309 309 308 308 309 309 310 310 309 310 309 309 311 312
313 314 314 315 312 313 314 315 316 316 315 312 312 313 312 312 311 310 310 310 310 309 309 309 309 308 307 307 307 308 308 308 309 310 311 309 310 310 310 310 311 311 310 309
313 314 315 313 314 313 313 314 313 314 313 312 312 311 311 310 310 310 310 309 309 308 308 308 308 307 308 307 307 307 307 308 309 310 309 309 309 310 310 310 310 311 311 311
310 312 313 312 312 312 313 313 313 312 312 312 311 311 311 310 309 308 308 307 307 307 307 308 307 306 306 306 308 309 308 309 309 309 309 309 310 309 310 309 310 310 310 310
309 310 309 309 313 313 313 313 312 312 312 311 310 309 308 307 307 307 306 306 305 305 305 306 306 306 306 306 307 308 309 309 309 309 308 308 307 307 307 309 309 309 309 309
Wind_Speed
12 3 6 12 11 13 12 17 17 16 17 12 10 8 7 14 9 12 13 10 26 26 21 21 19 16 9 13 17 14 20 18 19 21 23 21 28 26 27 25 25 23 23 22
5 8 11 13 12 12 12 14 15 15 15 5 6 6 7 6 5 15 20 19 32 29 25 22 18 10 10 7 9 15 14 19 19 16 18 18 15 19 27 27 27 26 26 25
9 9 14 14 16 15 12 9 9 9 12 7 7 5 6 4 15 18 10 19 33 28 25 23 21 19 14 12 10 11 11 11 16 15 11 13 14 15 19 20 25 28 29 27
10 14 15 16 16 11 7 9 13 10 6 9 2 6 6 6 11 8 20 37 32 30 32 29 25 19 15 9 7 5 9 14 12 14 18 18 20 19 17 20 21 28 26 29
12 10 13 15 16 16 17 10 11 7 6 3 12 2 7 6 9 10 15 27 32 39 34 30 26 23 17 11 2 4 5 11 10 12 9 19 16 18 18 21 24 22 24 25
12 24 14 18 20 19 18 14 9 4 4 7 5 6 7 9 6 5 14 32 38 36 33 29 25 25 25 13 8 6 5 9 12 9 10 12 16 14 17 18 16 14 21 20
11 10 5 21 15 12 19 3 5 7 3 6 7 4 6 16 24 3 17 28 35 32 32 32 29 23 22 20 13 9 6 6 5 4 7 10 15 16 19 17 21 11 14 19
5 6 10 18 10 5 9 4 4 6 6 3 6 2 2 10 29 40 50 25 33 32 33 26 24 23 20 15 14 17 18 15 7 1 1 5 1 10 15 15 21 22 17 18
5 4 19 14 13 2 6 5 9 9 4 3 4 4 1 15 22 31 37 43 32 22 20 23 27 23 22 18 15 15 17 18 16 16 16 8 8 11 12 11 17 23 28 27
8 6 7 15 8 11 1 1 4 6 0 4 3 1 6 1 8 13 25 30 35 25 18 10 25 25 25 18 11 12 19 16 16 16 15 15 13 13 11 11 13 13 20 23
7 3 7 8 2 1 6 4 3 4 3 2 3 1 5 5 8 7 10 13 25 20 17 20 24 23 21 18 17 8 12 13 9 8 12 14 16 14 13 12 12 13 15 17
2 4 4 12 12 6 9 3 3 2 4 5 3 0 4 9 12 17 8 7 11 7 8 15 22 16 14 13 12 11 11 12 9 10 8 8 11 16 16 14 13 12 13 14
4 4 5 8 4 6 6 2 3 6 9 7 1 2 5 9 11 17 22 19 18 17 13 7 6 6 9 11 10 9 9 12 9 12 10 11 10 10 14 19 15 13 12 12
5 2 3 4 8 3 3 8 4 5 4 5 4 3 5 6 9 18 19 18 19 13 15 8 11 11 12 9 11 11 11 14 13 14 12 13 13 14 13 15 19 19 12 11
5 4 5 10 13 15 8 11 9 12 15 6 4 5 10 10 9 17 20 12 14 17 7 14 11 12 9 7 9 12 16 19 17 19 17 14 12 15 17 14 19 21 16 12
3 3 6 7 13 16 11 15 14 24 11 9 7 3 7 13 15 17 17 18 10 18 17 14 12 11 11 13 14 15 15 18 22 23 19 18 16 16 15 17 18 21 17 19
4 2 2 4 10 14 8 6 4 6 7 4 4 3 4 8 13 17 25 25 20 17 13 12 11 9 8 11 13 15 18 18 16 17 20 20 21 20 18 16 18 16 17 20
5 3 2 4 7 4 6 6 6 5 12 14 6 1 10 17 28 27 23 20 16 13 12 10 9 8 11 15 21 23 22 25 27 24 18 17 15 18 22 23 18 14 21 20
12 5 1 2 3 8 11 4 5 4 6 14 17 12 19 24 24 16 13 10 9 8 10 11 13 14 19 21 17 16 19 24 25 24 25 24 22 19 18 20 24 21 14 18
10 6 5 1 1 3 7 10 13 10 1 11 18 16 18 18 5 1 9 6 6 4 9 12 17 17 14 19 17 20 22 20 19 18 17 19 22 24 23 21 21 22 22 22
2 1 7 3 3 5 7 11 7 2 4 6 12 14 15 7 6 8 10 11 6 8 13 13 17 19 16 19 20 21 21 20 24 24 20 21 18 20 24 28 29 26 23 19
5 3 4 3 3 5 7 4 4 7 7 7 10 13 11 7 7 10 12 13 14 18 15 17 19 17 22 23 22 23 23 24 24 24 24 24 25 26 26 23 23 25 30 30
1 4 3 1 4 3 10 12 3 1 9 7 8 7 6 5 8 11 14 18 17 15 17 16 19 24 24 24 21 23 25 26 26 23 22 26 25 28 23 23 24 25 24 25
3 4 2 2 5 12 2 3 11 8 9 13 8 5 6 6 10 12 14 16 19 21 22 21 18 19 19 22 23 24 26 26 25 24 26 24 24 23 22 21 21 24 26 27
7 5 5 4 6 15 6 0 8 4 5 8 7 5 6 9 12 15 13 12 12 18 20 16 17 19 21 23 24 23 24 18 20 20 20 19 17 21 23 25 23 25 24 26
10 3 2 3 6 3 14 12 2 7 5 2 3 7 10 13 13 12 16 18 19 21 22 19 17 19 21 23 24 23 17 15 15 15 16 19 21 23 24 22 24 25 27 28
Wind_Direction
256 201 237 245 229 234 253 273 282 289 289 318 172 179 236 255 254 142 157 191 132 114 113 109 96 93 131 162 182 199 200 208 208 218 219 219 223 221 220 222 231 240 246 250
273 249 241 254 261 260 259 258 273 283 285 306 298 233 218 273 277 201 180 186 135 128 120 116 114 111 77 113 144 174 198 221 235 221 228 229 240 241 230 230 233 237 239 242
244 261 271 253 251 258 261 271 273 264 307 317 317 293 220 237 290 279 141 182 140 133 129 123 110 101 98 90 101 158 187 199 223 234 216 226 243 233 237 236 238 236 241 244
266 277 269 273 281 276 245 257 273 273 285 285 52 285 276 219 245 264 135 123 127 127 115 108 107 108 102 99 104 135 193 199 201 220 227 228 232 235 234 239 254 248 250 256
276 271 272 276 268 277 275 234 259 278 260 267 277 266 271 268 243 232 158 138 123 121 121 109 102 91 100 114 138 106 153 179 185 211 219 229 236 237 242 248 250 272 263 250
267 277 272 280 284 283 282 275 257 273 241 263 239 212 275 277 277 178 150 127 122 119 115 115 113 101 84 82 71 132 155 147 176 202 206 224 238 238 233 233 253 279 266 264
286 259 24 31 356 339 347 262 282 253 279 225 229 252 82 10 1 229 135 121 120 120 120 115 108 102 96 79 68 69 127 124 130 175 210 229 239 246 258 251 247 253 272 262
1 354 39 340 334 238 322 43 269 219 219 269 354 323 59 44 26 23 33 60 104 103 103 111 107 99 88 98 77 69 65 70 90 99 243 259 285 256 255 267 256 259 252 251
343 312 331 343 345 22 280 303 321 296 138 66 217 227 64 26 35 29 25 30 25 94 99 92 111 112 107 102 92 72 59 55 53 60 58 33 347 329 321 295 262 261 262 258
335 314 318 320 16 340 263 270 8 357 110 221 221 126 228 352 59 33 34 25 22 28 68 108 86 110 96 89 86 86 61 62 62 41 27 23 22 28 18 347 313 296 271 269
14 339 310 343 188 161 344 15 15 183 115 300 312 133 308 336 113 79 74 37 50 358 55 24 54 66 72 69 53 53 43 28 26 43 27 16 6 354 350 357 354 340 315 289
70 258 295 287 292 30 112 18 68 319 315 234 216 202 114 129 148 151 171 214 203 274 41 6 39 54 60 56 37 22 19 12 18 355 326 336 357 346 339 333 329 331 331 329
351 345 332 336 14 64 88 249 227 258 232 249 72 187 86 121 146 167 175 192 219 211 218 176 248 33 51 34 18 3 344 356 351 346 334 314 299 322 333 326 332 317 315 320
116 231 238 245 270 264 296 301 267 257 256 230 217 155 204 170 161 163 178 182 197 213 229 169 111 85 66 36 16 359 328 324 324 329 327 314 311 320 312 311 316 326 307 307
147 222 291 292 292 300 246 263 268 260 268 280 281 191 204 204 194 205 187 151 184 203 158 103 76 53 32 356 343 331 326 320 321 310 303 303 311 315 309 312 303 312 309 306
354 310 330 314 311 300 329 317 224 236 269 293 305 83 147 152 136 131 163 194 202 94 83 66 49 28 3 345 335 328 325 318 312 311 311 300 296 297 304 308 315 292 301 303
298 324 349 275 313 325 308 268 343 26 14 7 30 91 105 75 96 82 81 78 72 66 56 43 28 8 339 318 308 303 305 302 306 318 310 308 306 291 295 303 310 291 288 286
243 268 236 278 321 254 248 345 47 28 35 4 313 345 96 96 78 73 69 69 57 53 50 41 12 342 314 305 301 305 301 296 293 289 291 291 306 309 296 299 302 321 294 274
193 187 248 171 259 290 311 28 17 43 58 18 43 57 73 98 89 64 46 58 57 36 2 349 333 322 321 319 320 311 309 310 304 291 290 284 287 303 305 311 303 298 303 295
177 161 149 222 265 270 307 342 12 348 72 8 58 41 28 31 61 234 82 46 351 342 343 328 327 328 326 313 322 316 315 316 330 331 333 321 298 289 292 291 300 303 294 293
21 213 200 192 222 272 236 254 313 282 200 72 57 64 54 58 48 8 8 10 360 334 329 315 316 317 311 311 316 321 306 303 306 306 309 310 312 315 299 290 285 286 293 292
173 175 232 168 213 271 345 23 1 165 118 76 64 73 69 44 5 344 342 338 331 322 320 316 315 300 312 316 314 306 303 304 306 307 306 308 311 309 309 303 297 293 280 286
52 156 229 292 218 257 8 348 56 179 141 99 94 74 45 8 342 329 329 327 326 322 315 307 295 301 303 307 308 304 304 305 297 297 294 302 302 307 311 306 303 299 301 298
355 126 139 338 334 310 320 8 33 84 84 99 93 53 17 359 340 331 313 309 306 306 305 304 303 307 311 317 309 302 301 301 298 292 294 298 304 309 316 316 309 304 302 298
266 172 195 209 217 292 344 93 193 115 70 48 44 40 357 345 333 324 316 318 318 303 303 312 311 307 306 300 307 305 310 307 299 299 301 304 311 308 304 308 302 306 301 302
276 285 150 249 23 105 166 167 123 119 109 95 354 352 345 337 341 319 314 318 315 311 306 307 309 305 307 301 304 310 311 300 307 308 310 312 309 312 314 316 309 303 307 308